Flag for Canada Weather past 2 weeks in Prince Albert, Saskatchewan, Canada

Now
61 °F

Passing clouds.


Feels Like: 61 °F
Forecast: 56 / 73 °F
Wind: 5 mph from West

Location: Prince Albert

Current Time: Jul 4, 2015 at 4:58:05 AM

Latest Report: Jul 4, 2015 at 4:00 AM


Visibility: 15 mi

Pressure: 29.72 "Hg

Humidity: 83%

Dew point: 55 °F

Location of Prince AlbertLocation

Historic Weather in Prince Albert — Graph

°F

Prince Albert temperature yesterday

Maximum temperature yesterday: 88 °F (at 2:00 PM)
Minimum temperature yesterday: 54 °F (at 5:00 AM)
Average temperature yesterday: 72 °F

Past Weeks' High & Low Weather Summary

 TemperatureHumidityPressure
High90 °F (Jun 28, 4:00 PM)100% (Jun 20, 3:00 AM)30.08 "Hg (Jun 20, 3:00 AM)
Low45 °F (Jun 23, 4:00 AM)31% (Jun 28, 5:00 PM)29.69 "Hg (Jul 3, 7:00 PM)
Average65 °F74%29.93 "Hg
* Reported Jun 19 4:00 AM — Jul 4 4:00 AM, Prince Albert, Weather by CustomWeather, © 2015

Note: Actual official high and low records may vary slightly from our data, if they occured in-between our weather recording intervals... More about our weather records

Advertising

Prince Albert weather history for previous 24 hours

 ConditionsComfort  
Time TempWeatherWind HumidityBarometerVisibility
4:00 AM
Sat, Jul 4
61 °FPassing clouds.5 mph83%29.72 "Hg15 mi
3:00 AM59 °FPassing clouds.6 mph88%29.71 "Hg15 mi
2:00 AM59 °FPassing clouds.6 mph88%29.71 "Hg15 mi
1:00 AM63 °FPassing clouds.2 mph83%29.72 "Hg15 mi
12:00 AM63 °FPartly cloudy.No wind83%29.71 "Hg15 mi
11:00 PM
Fri, Jul 3
70 °FPassing clouds.3 mph64%29.69 "Hg15 mi
10:00 PM70 °FMostly cloudy.5 mph60%29.72 "Hg12 mi
9:00 PM73 °FOvercast.7 mph61%29.72 "Hg8 mi
8:00 PM79 °FMore clouds than sun.8 mph51%29.70 "Hg8 mi
7:00 PM82 °FOvercast.10 mph48%29.69 "Hg8 mi
6:00 PM86 °FPartly sunny.16 mph43%29.70 "Hg10 mi
5:00 PM84 °FOvercast.17 mph43%29.72 "Hg10 mi
4:00 PM86 °FBroken clouds.17 mph43%29.75 "Hg10 mi
3:00 PM86 °FCloudy.20 mph43%29.75 "Hg7 mi
2:00 PM88 °FMostly cloudy.12 mph43%29.78 "Hg7 mi
1:00 PM86 °FOvercast.13 mph43%29.80 "Hg7 mi
12:00 PM84 °FOvercast.12 mph45%29.83 "Hg5 mi
11:00 AM81 °FOvercast.13 mph51%29.84 "Hg5 mi
10:00 AM77 °FPartly sunny.6 mph65%29.86 "Hg5 mi
9:00 AM73 °FPartly sunny.7 mph65%29.88 "Hg5 mi
8:00 AM70 °FPartly sunny.6 mph73%29.90 "Hg5 mi
7:00 AM64 °FFog.No wind88%29.90 "Hg5 mi
6:00 AM55 °FFog.No wind94%29.92 "Hg4 mi
5:00 AM54 °FFog.3 mph94%29.92 "Hg6 mi
4:00 AM55 °FPartly cloudy.2 mph94%29.92 "Hg8 mi
Weather by CustomWeather, © 2015

See weather overviewHow to use our weather pages